Location: Unspecified
(35.9148°N, 0.0000°E)
Time: 01:11:35
(UTC+00:00)

OTV 5 (USA 277) - Visible Passes

Search period start: 27 May 2019 00:00
Search period end: 06 June 2019 00:00
Orbit: 310 x 325 km, 54.5° (Epoch: 08 May)

Date Brightness Start Highest point End Pass type
(mag) Time Alt. Az. Time Alt. Az. Time Alt. Az.
01 Jun ? 03:47:06 10° SE 03:47:58 11° SE 03:48:49 10° ESE visible
02 Jun ? 03:59:57 10° SSW 04:02:29 34° SE 04:05:02 10° ENE visible
04 Jun ? 02:57:34 19° SE 02:57:45 19° SE 02:59:50 10° ENE visible
05 Jun ? 03:11:51 51° SSW 03:12:21 69° SE 03:15:05 10° NE visible
